Flag for U.S.A. Weather past 2 weeks in Cedar Rapids, Iowa, U.S.A.

Now
32 °F

Sunny.


Feels Like: 32 °F
Forecast: 17 / 31 °F
Wind: No wind

Location: Cedar Rapids Municipal Airport

Current Time: Dec 28, 2014 at 3:45:57 PM

Latest Report: Dec 28, 2014 at 2:52 PM


Visibility: 10 mi

Pressure: 30.18 "Hg

Humidity: 50%

Dew point: 15 °F

Location of Cedar RapidsLocation

Historic Weather in Cedar Rapids — Graph

°F

Cedar Rapids temperature yesterday

Maximum temperature yesterday: 38 °F (at 12:52 AM)
Minimum temperature yesterday: 15 °F (at 11:52 PM)
Average temperature yesterday: 29 °F

Past Weeks' High & Low Weather Summary

 TemperatureHumidityPressure
High54 °F (Dec 14, 1:59 PM)100% (Dec 13, 9:52 PM)30.37 "Hg (Dec 13, 9:52 PM)
Low11 °F (Dec 28, 7:52 AM)50% (Dec 28, 1:52 PM)29.44 "Hg (Dec 23, 2:04 AM)
Average34 °F89%29.98 "Hg
* Reported Dec 13 1:52 PM — Dec 28 1:52 PM, Cedar Rapids, Weather by CustomWeather, © 2014

Note: Actual official high and low records may vary slightly from our data, if they occured in-between our weather recording intervals... More about our weather records

Advertising

Cedar Rapids weather history for previous 24 hours

 ConditionsComfort  
Time TempWeatherWind HumidityBarometerVisibility
1:52 PM
Dec 28
32 °FSunny.5 mph50%30.18 "Hg10 mi
12:52 PM30 °FSunny.5 mph59%30.19 "Hg10 mi
11:52 AM27 °FSunny.5 mph69%30.21 "Hg10 mi
10:52 AM25 °FSunny.5 mph78%30.22 "Hg10 mi
9:52 AM22 °FSunny.5 mph89%30.23 "Hg9 mi
8:52 AM17 °FSunny.6 mph95%30.22 "Hg7 mi
7:52 AM11 °FSunny.3 mph96%30.22 "Hg7 mi
6:52 AM13 °FClear.5 mph92%30.19 "Hg9 mi
5:52 AM14 °FClear.No wind87%30.21 "Hg10 mi
4:52 AM14 °FClear.6 mph92%30.20 "Hg10 mi
3:52 AM14 °FClear.6 mph92%30.21 "Hg10 mi
2:52 AM14 °FClear.6 mph92%30.23 "Hg10 mi
1:52 AM15 °FClear.6 mph91%30.21 "Hg10 mi
12:52 AM15 °FClear.No wind95%30.21 "Hg10 mi
11:52 PM
Dec 27
15 °FClear.9 mph91%30.22 "Hg10 mi
10:52 PM16 °FClear.7 mph92%30.23 "Hg10 mi
9:52 PM18 °FClear.8 mph88%30.23 "Hg10 mi
8:52 PM20 °FClear.10 mph85%30.22 "Hg10 mi
7:52 PM22 °FClear.13 mph89%30.21 "Hg10 mi
6:52 PM23 °FPassing clouds.12 mph88%30.21 "Hg10 mi
5:52 PM25 °FPassing clouds.12 mph85%30.21 "Hg10 mi
4:52 PM27 °FOvercast.15 mph81%30.18 "Hg10 mi
3:52 PM27 °FOvercast.17 mph85%30.17 "Hg10 mi
Weather by CustomWeather, © 2014

See weather overviewHow to use our weather pages